SV4FFB-13 Weather Reports


time (UTC)temp
C
wind
direction
speed
KPH
gust
KPH
rain 1hr
cm
rain 24hr
cm
rain mn
cm
humidity
%
barometer
mb
20260504045026 7 0.0 0.0 0.00 0.00 0.00 10 1030.5
20260504044027 6 0.0 0.0 0.00 0.00 0.00 10 1030.6
20260504043026 6 0.0 0.0 0.00 0.00 0.00 10 1030.5
20260504042026 5 0.0 0.0 0.00 0.00 0.00 10 1030.2
20260504041026 5 0.0 0.0 0.00 0.00 0.00 10 1029.9
20260504040026 5 0.0 0.0 0.00 0.00 0.00 10 1029.9
20260504035027 4 0.0 0.0 0.00 0.00 0.00 10 1029.6
20260504034026 5 0.0 0.0 0.00 0.00 0.00 10 1029.4
20260504033027 5 0.0 0.0 0.00 0.00 0.00 10 1029.1
20260504032027 4 0.0 0.0 0.00 0.00 0.00 10 1028.7
20260504031027 5 0.0 0.0 0.00 0.00 0.00 10 1028.5
20260504030027 5 0.0 0.0 0.00 0.00 0.00 10 1028.4
20260504025026 5 0.0 0.0 0.00 0.00 0.00 10 1028.2
20260504024026 5 0.0 0.0 0.00 0.00 0.00 10 1028.1
20260504023027 4 0.0 0.0 0.00 0.00 0.00 10 1027.8
20260504022026 5 0.0 0.0 0.00 0.00 0.00 10 1027.7
20260504021027 5 0.0 0.0 0.00 0.00 0.00 10 1027.7
20260504020026 5 0.0 0.0 0.00 0.00 0.00 10 1027.7
20260504015027 5 0.0 0.0 0.00 0.00 0.00 10 1027.6
20260504014027 5 0.0 0.0 0.00 0.00 0.00 10 1027.8
20260504013026 5 0.0 0.0 0.00 0.00 0.00 10 1027.7
20260504012027 5 0.0 0.0 0.00 0.00 0.00 10 1027.5
20260504011027 5 0.0 0.0 0.00 0.00 0.00 10 1027.4
20260504010027 5 0.0 0.0 0.00 0.00 0.00 10 1027.3
20260504005025 5 0.0 0.0 0.00 0.00 0.00 10 1027.1
20260504004025 5 0.0 0.0 0.00 0.00 0.00 10 1027.0
20260504003027 5 0.0 0.0 0.00 0.00 0.00 10 1027.1
20260504002026 5 0.0 0.0 0.00 0.00 0.00 10 1027.1
20260504001026 6 0.0 0.0 0.00 0.00 0.00 10 1027.0
20260504000026 5 0.0 0.0 0.00 0.00 0.00 10 1026.7
20260503235026 6 0.0 0.0 0.00 0.00 0.00 10 1026.6
20260503234027 6 0.0 0.0 0.00 0.00 0.00 10 1026.4
20260503233026 6 0.0 0.0 0.00 0.00 0.00 10 1026.4
20260503232026 6 0.0 0.0 0.00 0.00 0.00 10 1026.3
20260503231025 7 0.0 0.0 0.00 0.00 0.00 10 1026.4
20260503230025 6 0.0 0.0 0.00 0.00 0.00 10 1026.4
20260503225027 6 0.0 0.0 0.00 0.00 0.00 10 1026.3
20260503224025 6 0.0 0.0 0.00 0.00 0.00 10 1026.3
20260503223025 6 0.0 0.0 0.00 0.00 0.00 10 1026.1
20260503222025 6 0.0 0.0 0.00 0.00 0.00 10 1026.2
20260503221025 6 0.0 0.0 0.00 0.00 0.00 10 1026.2
20260503220025 7 0.0 0.0 0.00 0.00 0.00 10 1026.3
20260503215025 7 0.0 0.0 0.00 0.00 0.00 10 1026.5
20260503214026 7 0.0 0.0 0.00 0.00 0.00 10 1026.6
20260503213025 7 0.0 0.0 0.00 0.00 0.00 10 1026.5
20260503212025 7 0.0 0.0 0.00 0.00 0.00 10 1026.6
20260503211025 6 0.0 0.0 0.00 0.00 0.00 10 1026.3
20260503210025 7 0.0 0.0 0.00 0.00 0.00 10 1026.3
20260503205025 7 0.0 0.0 0.00 0.00 0.00 10 1026.1
20260503204025 7 0.0 0.0 0.00 0.00 0.00 10 1025.9
20260503203025 7 0.0 0.0 0.00 0.00 0.00 10 1025.8
20260503202025 7 0.0 0.0 0.00 0.00 0.00 10 1025.6
20260503201025 7 0.0 0.0 0.00 0.00 0.00 10 1025.3
20260503200026 8 0.0 0.0 0.00 0.00 0.00 10 1025.2
20260503195025 8 0.0 0.0 0.00 0.00 0.00 10 1025.0
20260503194025 8 0.0 0.0 0.00 0.00 0.00 10 1024.8
20260503193025 8 0.0 0.0 0.00 0.00 0.00 10 1024.5
20260503192025 8 0.0 0.0 0.00 0.00 0.00 10 1024.2
20260503191025 8 0.0 0.0 0.00 0.00 0.00 10 1023.8
20260503190025 8 0.0 0.0 0.00 0.00 0.00 10 1023.3
20260503185025 8 0.0 0.0 0.00 0.00 0.00 10 1023.0
20260503184025 8 0.0 0.0 0.00 0.00 0.00 10 1022.6
20260503183025 9 0.0 0.0 0.00 0.00 0.00 10 1022.1
20260503182025 10 0.0 0.0 0.00 0.00 0.00 10 1021.4
20260503181025 10 0.0 0.0 0.00 0.00 0.00 10 1021.1
20260503180025 10 0.0 0.0 0.00 0.00 0.00 10 1020.9
20260503175026 10 0.0 0.0 0.00 0.00 0.00 10 1020.8
20260503174025 12 0.0 0.0 0.00 0.00 0.00 10 1020.2
20260503173025 12 0.0 0.0 0.00 0.00 0.00 10 1020.0
20260503172025 12 0.0 0.0 0.00 0.00 0.00 10 1020.1
20260503171025 12 0.0 0.0 0.00 0.00 0.00 10 1019.9
20260503131025 20 0.0 0.0 0.00 0.00 0.00 10 1019.2
20260503081028 8 0.0 0.0 0.00 0.00 0.00 63 1032.4
20260503072025 7 0.0 0.0 0.00 0.00 0.00 51 1031.6
20260503071025 7 0.0 0.0 0.00 0.00 0.00 51 1031.5
20260503055025 7 0.0 0.0 0.00 0.00 0.00 57 1030.1
20260503054025 8 0.0 0.0 0.00 0.00 0.00 60 1030.1
20260503053025 8 0.0 0.0 0.00 0.00 0.00 64 1029.6
20260503052025 8 0.0 0.0 0.00 0.00 0.00 67 1029.0